DW3794 Weather Reports


time (UTC)temp
F
wind
direction
speed
knots
gust
knots
rain 1hr
in
rain 24hr
in
rain mn
in
humidity
%
barometer
mb
20260905060015 58 171 2.6 3.5 0.00 0.00 0.00 47 1006.2
20260905054601 56 169 1.7 5.2 0.00 0.00 0.00 47 1006.1
20260905053053 61 168 4.3 6.1 0.00 0.00 0.00 39 1005.9
20260905051541 64 167 0.9 3.5 0.00 0.00 0.00 32 1005.9
20260905050042 62 167 0.0 6.1 0.00 0.00 0.00 34 1005.9
20260905044518 61 168 9.6 12.2 0.00 0.00 0.00 37 1005.7
20260905043009 60 168 9.6 11.3 0.00 0.00 0.00 39 1005.8
20260905041555 58 167 7.0 8.7 0.00 0.00 0.00 42 1005.8
20260905040051 59 168 5.2 8.7 0.00 0.00 0.00 40 1005.7
20260905034533 58 167 6.1 7.8 0.00 0.00 0.00 44 1005.5
20260905033026 57 168 7.0 7.8 0.00 0.00 0.00 45 1005.5
20260905031508 58 168 6.1 8.7 0.00 0.00 0.00 44 1005.4
20260905030004 58 168 5.2 7.8 0.00 0.00 0.00 42 1005.2
20260905024546 58 168 6.1 8.7 0.00 0.00 0.00 45 1005.1
20260905023046 59 171 5.2 7.8 0.00 0.00 0.00 43 1004.9
20260905021528 62 171 6.1 7.8 0.00 0.00 0.00 38 1004.7
20260905020028 66 171 4.3 7.0 0.00 0.00 0.00 34 1004.6
20260905014510 68 171 8.7 13.9 0.00 0.00 0.00 27 1004.4
20260905013009 72 171 8.7 13.0 0.00 0.00 0.00 26 1004.3
20260905011556 74 171 8.7 16.5 0.00 0.00 0.00 24 1004.3
20260905010106 74 171 11.3 16.5 0.00 0.00 0.00 22 1004.3
20260905004534 75 171 9.6 19.1 0.00 0.00 0.00 23 1004.2
20260905003034 77 171 7.8 16.5 0.00 0.00 0.00 25 1004.3
20260905001517 77 171 14.8 20.9 0.00 0.00 0.00 21 1004.1
20260905000016 78 171 13.0 29.5 0.00 0.00 0.00 20 1004.1
20260904234557 78 171 18.2 23.5 0.00 0.00 0.00 19 1004.1
20260904233057 78 171 12.2 19.1 0.00 0.00 0.00 20 1004.0
20260904231539 79 171 13.9 20.0 0.00 0.00 0.00 19 1003.9
20260904230040 79 171 12.2 22.6 0.00 0.00 0.00 19 1004.0
20260904224531 79 171 10.4 21.7 0.00 0.00 0.00 18 1003.6
20260904223027 80 171 12.2 21.7 0.00 0.00 0.00 19 1003.8
20260904221533 80 171 7.8 15.6 0.00 0.00 0.00 20 1003.9
20260904220024 80 171 7.0 13.0 0.00 0.00 0.00 23 1004.0
20260904214523 79 171 7.8 20.0 0.00 0.00 0.00 18 1004.0
20260904213029 79 171 9.6 15.6 0.00 0.00 0.00 20 1004.0
20260904211522 79 171 14.8 22.6 0.00 0.00 0.00 19 1004.0
20260904210025 79 171 12.2 24.3 0.00 0.00 0.00 20 1004.2
20260904204521 79 171 11.3 25.2 0.00 0.00 0.00 23 1004.1
20260904203009 79 171 10.4 19.1 0.00 0.00 0.00 18 1004.2
20260904201502 79 171 12.2 21.7 0.00 0.00 0.00 20 1004.4
20260904200045 78 171 15.6 21.7 0.00 0.00 0.00 21 1004.4
20260904194543 79 171 14.8 20.9 0.00 0.00 0.00 21 1004.6
20260904193028 78 171 13.0 22.6 0.00 0.00 0.00 23 1004.4
20260904191522 77 171 13.0 20.0 0.00 0.00 0.00 21 1004.5
20260904190009 76 171 10.4 20.9 0.00 0.00 0.00 23 1004.5
20260904184504 77 171 11.3 19.1 0.00 0.00 0.00 19 1004.8
20260904183046 76 171 12.2 19.1 0.00 0.00 0.00 20 1004.9
20260904181547 76 171 13.9 19.1 0.00 0.00 0.00 19 1004.9
20260904180026 77 171 7.0 13.0 0.00 0.00 0.00 20 1005.1
20260904174524 75 171 11.3 18.2 0.00 0.00 0.00 21 1005.0
20260904173007 75 171 9.6 19.1 0.00 0.00 0.00 23 1004.9
20260904171505 75 171 12.2 19.1 0.00 0.00 0.00 20 1005.0
20260904170046 74 171 7.0 17.4 0.00 0.00 0.00 27 1005.0
20260904164541 70 171 2.6 5.2 0.00 0.00 0.00 29 1004.9
20260904163023 68 171 2.6 6.1 0.00 0.00 0.00 31 1005.1
20260904161516 67 171 1.7 5.2 0.00 0.00 0.00 33 1005.0
20260904160055 65 171 2.6 4.3 0.00 0.00 0.00 39 1005.1
20260904154554 63 171 3.5 7.8 0.00 0.00 0.00 38 1005.0
20260904153030 61 171 1.7 6.1 0.00 0.00 0.00 42 1004.9
20260904151529 60 171 1.7 5.2 0.00 0.00 0.00 43 1005.1
20260904150028 58 171 2.6 5.2 0.00 0.00 0.00 49 1005.1
20260904144509 56 171 4.3 9.6 0.00 0.00 0.00 52 1005.2
20260904143050 55 171 3.5 10.4 0.00 0.00 0.00 54 1005.1
20260904141548 53 171 3.5 7.0 0.00 0.00 0.00 55 1005.1
20260904140031 52 170 2.6 6.1 0.00 0.00 0.00 57 1005.2
20260904134522 49 170 0.9 2.6 0.00 0.00 0.00 64 1004.9
20260904133001 46 171 0.0 3.5 0.00 0.00 0.00 69 1004.8
20260904131557 46 170 4.3 7.0 0.00 0.00 0.00 65 1005.0
20260904130048 46 171 5.2 7.8 0.00 0.00 0.00 63 1005.0
20260904124538 45 171 5.2 7.8 0.00 0.00 0.00 65 1005.0
20260904123016 46 171 1.7 4.3 0.00 0.00 0.00 62 1004.9
20260904121516 46 171 4.3 7.0 0.00 0.00 0.00 62 1004.5
20260904120057 47 171 0.9 7.8 0.00 0.00 0.00 62 1004.5
20260904114555 46 171 4.3 11.3 0.00 0.00 0.00 62 1004.1
20260904113037 45 171 2.6 7.0 0.00 0.00 0.00 66 1004.2
20260904111540 45 171 4.3 7.8 0.00 0.00 0.00 65 1004.1
20260904110016 45 171 0.9 7.8 0.00 0.00 0.00 65 1003.8
20260904104514 46 166 1.7 3.5 0.00 0.00 0.00 65 1004.0
20260904103055 46 166 4.3 7.0 0.00 0.00 0.00 64 1003.7
20260904101553 47 165 4.3 7.0 0.00 0.00 0.00 63 1003.8
20260904100035 48 163 4.3 5.2 0.00 0.00 0.00 58 1003.7
20260904094533 46 165 1.7 4.3 0.00 0.00 0.00 63 1003.5
20260904093015 48 163 2.6 3.5 0.00 0.00 0.00 59 1003.4
20260904091515 48 159 1.7 6.1 0.00 0.00 0.00 57 1003.4
20260904090058 48 157 4.3 6.1 0.00 0.00 0.00 58 1003.4
20260904084558 49 165 4.3 8.7 0.00 0.00 0.00 58 1003.5
20260904083038 48 165 1.7 6.1 0.00 0.00 0.00 59 1003.6
20260904081537 48 165 5.2 6.1 0.00 0.00 0.00 58 1003.6
20260904080018 48 169 4.3 6.1 0.00 0.00 0.00 61 1003.8
20260904074521 48 170 5.2 6.1 0.00 0.00 0.00 59 1003.7
20260904073102 46 170 3.5 5.2 0.00 0.00 0.00 66 1003.8
20260904071555 50 165 2.6 4.3 0.00 0.00 0.00 58 1003.8
20260904070035 51 164 3.5 5.2 0.00 0.00 0.00 50 1003.7
20260904064531 53 164 4.3 5.2 0.00 0.00 0.00 47 1003.7
20260904063014 55 165 5.2 6.1 0.00 0.00 0.00 44 1003.7
20260904061522 57 163 0.0 5.2 0.00 0.00 0.00 42 1003.5